Laramie, WY

6:53 AM MST on February 09, 2016 (GMT -0700)
Laramie Regional

Weather History for KLAR - April, 2012

Change the Weather History Date:

Monday, April 2, 2012

  Actual Average Record
Temperature  
Mean Temperature 34 °F 34 °F  
Max Temperature 39 °F 47 °F 69 °F (2011)
Min Temperature 29 °F 22 °F -14 °F (1975)
Degree Days  
Heating Degree Days 31 31  
Month to date heating degree days 40 62  
Since 1 July heating degree days 7013 7297  
Cooling Degree Days 0 0  
Month to date cooling degree days 0 0  
Year to date cooling degree days 0 0  
Moisture  
Dew Point 26 °F    
Average Humidity 73    
Maximum Humidity 92    
Minimum Humidity 54    
Precipitation  
Precipitation 0.02 in 0.03 in 1.17 in (1968)
Month to date precipitation 0.02 0.05  
Year to date precipitation 1.13 1.24  
Sea Level Pressure  
Sea Level Pressure 29.88 in    
Wind  
Wind Speed 14 mph (North)    
Max Wind Speed 26 mph    
Max Gust Speed 31 mph    
Visibility 8 miles    
Events Snow    
T = Trace of Precipitation, MM = Missing Value Source: NWS Daily Summary

Daily Weather History Graph

Daily Weather History Graph

Search for Another Location

Airport or City:

Trip Planner

Search our weather history database for the weather conditions in past years. The results will help you decide how hot, cold, wet, or windy it might be!

Date:

Astronomy

Apr. 02, 2012 Rise Set
Actual Time 6:43 AM MDT 7:29 PM MDT
Civil Twilight 6:15 AM MDT 7:57 PM MDT
Nautical Twilight 5:42 AM MDT 8:30 PM MDT
Astronomical Twilight 5:08 AM MDT 9:05 PM MDT
Moon 3:05 PM MDT (4/2) 4:01 AM MDT (4/2)
Length of Visible Light 13h 42m
Length of Day
12h 46m
Waxing Gibbous, 79% of the Moon is Illuminated
Apr 2
Waxing Gibbous
Apr 6
Full
Apr 13
Last Quarter
Apr 21
New
Apr 29
First Quarter

Hourly Weather History & Observations

Time (MDT) Temp. Windchill Dew Point Humidity Pressure Visibility Wind Dir Wind Speed Gust Speed Precip Events Conditions
12:53 AM 39.0 °F 29.0 °F 25.0 °F 57% 29.42 in 10.0 mi NNW 20.7 mph 28.8 mph N/A   Clear
1:53 AM 37.9 °F 27.9 °F 25.0 °F 60% 29.46 in 10.0 mi NNW 19.6 mph 26.5 mph N/A   Mostly Cloudy
2:36 AM 37.4 °F 27.5 °F 26.6 °F 65% 29.73 in 10.0 mi NNW 18.4 mph - N/A   Overcast
2:53 AM 37.9 °F 28.5 °F 27.0 °F 65% 29.48 in 10.0 mi NNW 17.3 mph - N/A   Overcast
3:53 AM 36.0 °F 26.7 °F 25.0 °F 64% 29.49 in 10.0 mi North 15.0 mph 24.2 mph N/A   Overcast
4:53 AM 34.0 °F 22.4 °F 23.0 °F 64% 29.52 in 10.0 mi NNW 20.7 mph - N/A   Overcast
5:31 AM 33.8 °F 22.8 °F 26.6 °F 75% 29.78 in 10.0 mi NNW 18.4 mph 29.9 mph N/A   Overcast
5:53 AM 32.0 °F 19.8 °F 27.0 °F 82% 29.57 in 10.0 mi NNW 20.7 mph 29.9 mph N/A   Overcast
6:29 AM 30.2 °F 18.1 °F 28.4 °F 93% 29.82 in 7.0 mi NNW 18.4 mph 27.6 mph 0.00 in   Overcast
6:53 AM 30.9 °F 19.1 °F 28.0 °F 89% 29.63 in 8.0 mi NNW 18.4 mph - 0.00 in   Overcast
7:32 AM 30.2 °F 18.5 °F 28.4 °F 93% 29.84 in 1.8 mi NNW 17.3 mph 24.2 mph 0.00 in Snow Light Snow
7:53 AM 30.9 °F 21.7 °F 30.0 °F 96% 29.72 in 3.0 mi NNE 11.5 mph 23.0 mph 0.00 in Snow Light Snow
8:04 AM 30.2 °F 20.2 °F 28.4 °F 93% 29.86 in 2.5 mi NNE 12.7 mph - 0.00 in Snow Light Snow
8:28 AM 30.2 °F 21.3 °F 28.4 °F 93% 29.87 in 2.5 mi North 10.4 mph - 0.00 in Snow Light Snow
8:35 AM 30.2 °F 20.8 °F 28.4 °F 93% 29.87 in 4.0 mi NNE 11.5 mph - 0.00 in   Overcast
8:53 AM 30.9 °F 21.2 °F 28.9 °F 92% 29.75 in 7.0 mi NNE 12.7 mph - 0.00 in   Overcast
9:15 AM 30.2 °F 21.3 °F 28.4 °F 93% 29.90 in 9.0 mi NNE 10.4 mph - 0.00 in Snow Light Snow
9:25 AM 30.2 °F 21.3 °F 28.4 °F 93% 29.91 in 8.0 mi NNE 10.4 mph - 0.00 in Snow Light Snow
9:53 AM 30.9 °F 21.2 °F 27.0 °F 85% 29.83 in 8.0 mi NNE 12.7 mph - 0.01 in Snow Light Snow
10:14 AM 30.2 °F 22.6 °F 26.6 °F 86% 29.94 in 1.8 mi NNE 8.1 mph 17.3 mph 0.00 in Snow Light Snow
10:28 AM 30.2 °F 20.8 °F 26.6 °F 86% 29.94 in 2.5 mi North 11.5 mph - 0.00 in Snow Light Snow
10:40 AM 30.2 °F 20.2 °F 26.6 °F 86% 29.94 in 4.0 mi North 12.7 mph 20.7 mph 0.00 in Snow Light Snow
10:53 AM 30.9 °F 20.2 °F 26.1 °F 82% 29.87 in 7.0 mi North 15.0 mph - 0.00 in Snow Light Snow
11:53 AM 30.9 °F 20.2 °F 27.0 °F 85% 29.92 in 9.0 mi NNW 15.0 mph - 0.00 in Snow Light Snow
12:39 PM 30.2 °F 19.8 °F 26.6 °F 86% 29.99 in 8.0 mi North 13.8 mph - 0.01 in Snow Light Snow
12:53 PM 30.9 °F 20.2 °F 26.1 °F 82% 29.95 in 10.0 mi North 15.0 mph - 0.01 in   Overcast
1:03 PM 30.2 °F 19.8 °F 26.6 °F 86% 29.99 in 10.0 mi North 13.8 mph 20.7 mph N/A   Overcast
1:53 PM 30.9 °F 21.7 °F 27.0 °F 85% 29.96 in 10.0 mi NNE 11.5 mph - N/A   Overcast
2:03 PM 32.0 °F 23.6 °F 26.6 °F 80% 30.00 in 10.0 mi North 10.4 mph 17.3 mph N/A   Overcast
2:16 PM 32.0 °F 23.0 °F 26.6 °F 80% 30.00 in 10.0 mi North 11.5 mph - N/A   Overcast
2:53 PM 32.0 °F 23.6 °F 25.0 °F 75% 29.97 in 10.0 mi North 10.4 mph - N/A   Overcast
3:53 PM 33.1 °F 25.5 °F 26.1 °F 75% 29.99 in 10.0 mi NNE 9.2 mph - N/A   Overcast
4:53 PM 30.0 °F 19.1 °F 25.0 °F 82% 30.06 in 9.0 mi NE 15.0 mph - 0.00 in Snow Light Snow
5:53 PM 30.0 °F 18.3 °F 24.1 °F 79% 30.09 in 10.0 mi NNE 17.3 mph 24.2 mph 0.00 in   Overcast
6:53 PM 28.9 °F 19.2 °F 23.0 °F 78% 30.13 in 10.0 mi NE 11.5 mph - 0.00 in   Overcast
7:53 PM 28.9 °F 19.8 °F 24.1 °F 82% 30.15 in 10.0 mi NNE 10.4 mph - N/A   Overcast
8:53 PM 30.0 °F 21.1 °F 24.1 °F 79% 30.16 in 10.0 mi NNE 10.4 mph - N/A   Overcast
9:53 PM 30.0 °F 22.4 °F 23.0 °F 75% 30.16 in 10.0 mi NNE 8.1 mph - N/A   Overcast
10:53 PM 30.0 °F 22.4 °F 23.0 °F 75% 30.17 in 10.0 mi North 8.1 mph - N/A   Overcast
11:53 PM 28.9 °F 18.6 °F 23.0 °F 78% 30.19 in 10.0 mi North 12.7 mph - N/A   Overcast